User: anonymous   Login
Location: Unspecified
(0.0000°N, 0.0000°E)
Time: 22:30:17
(UTC+02:00)
Language:

JASON 3 - Orbit

View from above orbital plane
View from above orbital plane
View from above satellite
View from above satellite

Ground track
Ground track

The orbit data is extracted from the following two-line orbital elements,

1 41240U 16002A   21216.53038193 -.00000064  00000-0 -12657-4 0  9991
2 41240  66.0375 227.1604 0008277 269.0731  90.9336 12.80929386259323
Epoch (UTC): 04 August 2021 12:43:44
Eccentricity: 0.0008277
inclination: 66.0375°
perigee height: 1331 km
apogee height: 1344 km
right ascension of ascending node: 227.1604°
argument of perigee: 269.0731°
revolutions per day: 12.80929386
mean anomaly at epoch: 90.9336°
orbit number at epoch: 25932

The dashed part of the orbit path shows where the satellite is in the earth's shadow,  

DLR